1st Responders/1st Detectors/Storm Spotters Weather Summary for Mason County, KY

Forecast Maps


Reg. NEXRAD Animation


National Fire Danger: Day 1 & 2 Map

Current NWS Watch/Warnings

SPC Convective Day 1 Outlook


Day 2 Outlook

(Click images to enlarge|Page will refresh every 5 minutes)
UK Ag. Weather Center Desktop Severe Weather Service[HERE]
Mason County, KY Hazardous Weather Outlook Webcast
(9 AM to 9 PM Mon-Fri)
[Fast]
[Dial-up]


UKAWC 1st Detectors/1st Responders Precision Weather Forecast For MASON County, Kentucky
(based on the NWS County Digital Forecast)

ISSUED AT 02:00 UTC ON MONDAY NOV 30 2020
DAY SUN MONDAY
EDT 3HR 11P MIDN 1A 2A 3A 4A 5A 6A 7A 8A 9A 10A 11A NOON 1P 2P 3P 4P 5P 6P 7P
MAX/MIN -- -- -- -- -- -- -- -- -- 36° -- -- -- -- -- -- -- -- -- -- 38°
TEMP 47° 47° 45° 45° 43° 43° 43° 40° 38° 36° 36° 34° 34° 34° 36° 36° 36° 34° 34° 32° 32°
SKY COVER 100% 100% 100% 100% 100% 100% 100% 100% 100% 100% 100% 100% 100% 100% 100% 100% 100% 100% 100% 100% 100%
Clouds
DEW PT 41° 41° 41° 41° 40° 40° 38° 36° 36° 34° 34° 34° 34° 34° 34° 34° 34° 32° 32° 31° 31°
RH 82% 83% 85% 88% 88% 85% 85% 85% 88% 91% 92% 96% 96% 96% 92% 92% 91% 92% 96% 95% 96%
POP 12HR -- -- -- -- -- -- -- -- -- 98% -- -- -- -- -- -- -- -- -- -- --
RAIN/SNOW (liq.equ) -- -- -- 0.04in -- -- -- -- -- 0.40in -- -- -- -- -- 0.19in -- -- -- -- --
SNOWFALL -- -- -- 0in -- -- -- -- -- 0in -- -- -- -- -- 0in -- -- -- -- --
WIND SPEED(MPH) 2 2 5 5 7 8 9 10 13 13 13 13 13 13 14 14 14 13 13 13 13
WIND Gust(MPH) 5 5 5 7 9 14 16 18 21 21 21 18 18 21 22 22 21 18 17 16 16
WIND DIR NW NW N N N N N N N N NW NW NW NW NW NW NW NW NW NW NW
DEW -- -- -- -- -- -- -- -- -- -- -- -- -- -- -- -- -- -- -- -- --
HeatIndex 47 47 45 42 40 38 37 34 31 28 27 26 26 26 27 27 27 26 25 23 23
Snow -- -- -- -- -- -- -- -- Definite Definite Definite Definite Definite Definite Definite Definite Likely Likely Likely Likely Likely
Snow Showers -- -- -- -- -- -- -- -- -- -- -- -- -- -- -- -- -- -- -- -- --
Rain Chance Chance Chance Likely Definite Definite Definite Definite Definite Definite Definite Definite -- -- -- -- -- -- -- -- --
Rain Showers -- -- -- -- -- -- -- -- -- -- -- -- -- -- -- -- -- -- -- -- --
WIND CHILL -- -- 43° 43° 39° 38° 38° 34° 30° 28° 28° 25° 25° 25° 27° 27° 27° 25° 25° 23° 23°
SPRAY COND
DRY COND
LIVESTOCK COLDSTRESS



DAY MONDAY TUESDAY WEDNESDAY THURSDAY FRIDAY SATURDAY SUNDAY
EDT 6HR 8P 9P 10P 11P MIDN 1A 2A 3A 4A 5A 6A 7A 8A 9A 10A 11A 2P 5P 8P 11P 2A 5A 8A 11A 2P 5P 8P 2A 8A 2P 8P 2A 8A 2P 8P 2A 8A 2P 8P 2A 8A 2P 8P
MAX/MIN -- -- -- -- -- -- -- -- -- -- -- -- 27° -- -- -- -- 34° -- -- -- -- 22° -- -- 41° -- -- 25° 45° -- -- 32° 45° -- -- 29° 40° -- -- 29° 41° --
TEMP 32° 31° 31° 31° 31° 31° 31° 29° 29° 29° 27° 27° 27° 27° 27° 29° 32° 34° 29° 25° 23° 22° 22° 27° 38° 41° 34° 29° 25° 41° 40° 34° 32° 43° 38° 32° 29° 38° 36° 31° 29° 40° 36°
SKY COVER 100% 98% 97% 95% 95% 95% 95% 95% 94% 94% 92% 91% 89% 88% 86% 85% 82% 48% 27% 12% 4% 2% 1% 2% 3% 2% 5% 31% 81% 80% 80% 86% 84% 76% 68% 56% 69% 48% 46% 40% 66% 40% 49%
Clouds
DEW PT 31° 31° 29° 29° 27° 27° 27° 25° 25° 25° 25° 25° 25° 25° 23° 23° 23° 22° 22° 20° 18° 18° 18° 22° 23° 25° 23° 23° 25° 31° 31° 32° 32° 36° 34° 31° 29° 31° 29° 27° 27° 31° 29°
RH 96% 95% 91% 92% 88% 88% 84% 84% 84% 84% 88% 88% 91% 91% 84% 80% 68% 63% 74% 77% 80% 83% 87% 77% 54% 50% 63% 81% 95% 64% 72% 92% 99% 76% 85% 92% 95% 73% 75% 88% 96% 69% 78%
POP 12HR 98% -- -- -- -- -- -- -- -- -- -- -- 68% -- -- -- -- -- 21% -- -- -- 1% -- -- -- 0% -- 3% -- 16% -- 23% -- 22% -- 24% -- 26% -- 20% -- 8%
RAIN/SNOW (liq.equ) 0.08in -- -- -- -- -- 0.07in -- -- -- -- -- 0.01in -- -- -- 0.02in -- 0.00in -- 0.00in -- 0.00in -- 0.00in -- 0.00in -- -- -- -- -- -- -- -- -- -- -- -- -- -- -- --
SNOWFALL 0in -- -- -- -- -- 0in -- -- -- -- -- 0in -- -- -- 0in -- 0in -- 0in -- 0in -- 0in -- 0in -- -- -- -- -- -- -- -- -- -- -- -- -- -- -- --
WIND SPEED(MPH) 13 13 10 10 10 10 10 10 10 10 10 10 9 10 13 14 14 10 7 7 7 7 7 7 7 6 2 1 2 5 1 1 1 5 1 5 6 8 6 6 7 10 7
WIND DIR NW NW W W W W W W W W W W W W W W W W W W W W SW W SW SW SW SW S S S S S SW W W W W W W W W W
HeatIndex 23 22 23 21 21 21 21 20 20 19 18 18 17 16 17 18 23 25 21 17 15 14 13 20 33 38 32 29 21 39 40 34 32 40 38 28 23 32 31 25 22 32 30
Snow Likely Likely Likely Likely Likely Likely Chance Chance Chance Chance Chance Chance Slight Chance Slight Chance Slight Chance Slight Chance -- -- -- -- -- -- -- -- -- -- -- -- -- -- -- -- -- -- -- -- -- -- -- -- -- -- --
Snow Showers -- -- -- -- -- -- -- -- -- -- -- -- -- -- -- -- -- -- -- -- -- -- -- -- -- -- -- -- -- -- -- Slight Chance Slight Chance -- -- Slight Chance Slight Chance -- Slight Chance -- -- -- --
Rain -- -- -- -- -- -- -- -- -- -- -- -- -- -- -- -- -- -- -- -- -- -- -- -- -- -- -- -- -- -- -- -- -- -- -- -- -- -- -- -- -- -- --
Rain Showers -- -- -- -- -- -- -- -- -- -- -- -- -- -- -- -- -- -- -- -- -- -- -- -- -- -- -- -- -- Slight Chance Slight Chance Slight Chance -- Slight Chance Slight Chance -- -- Chance Slight Chance -- -- -- --
WIND CHILL 23° 21° 23° 23° 23° 23° 23° 20° 20° 20° 18° 18° 18° 18° 16° 19° 22° 26° 22° 17° 15° 14° 14° 20° 33° 37° -- -- -- 38° -- -- -- 40° -- 28° 23° 32° 31° 25° 22° 34° 30°
SPRAY COND
DRY COND
LIVESTOCK COLDSTRESS

Click on individual weather variable above in left-hand column (ie., TEMP, RH, QPF 12HR) to view state forecast maps






NWS 48 Hr. Forecast Maps,

Regional Hourly Observations For MASON County, Kentucky
Issued at 900 PM EST SUN NOV 29 2020
...CENTRAL KENTUCKY...
  
CITY           SKY/WX    TMP DP  RH WIND       PRES   REMARKS
MT STERLING*   DRIZZLE   50  43  76 SE5       29.86F                  
FLEMING/MASON* CLOUDY    48  40  73 SE3       29.87F                  
DANVILLE*      LGT RAIN  46  43  87 CALM      29.86F                  
RICHMOND*      CLOUDY    48  45  87 CALM      29.85F                  
LEXINGTON      CLOUDY    49  41  74 W3        29.85F                  
FRANKFORT      CLOUDY    51  42  71 NW5       29.85F                  
LOUISVILLE     CLOUDY    49  37  63 NW10G20   29.86F                  
LEBANON*       CLOUDY    48  48 100 CALM      29.86F                  
GLASGOW*       RAIN      46  44  94 CALM      29.87F                  
BOWLING GREEN  LGT RAIN  46  40  79 NW3       29.88F                  


Current NOWCAST not available:
Nowcasts are not issued routinely during fair weather. Only when
precipitation or other significant weather is occuring in this county will these
forecasts be issued. Currently, there is no short term forecast in effect.


Fire Weather Forecast For MASON County, KY
Provided by the National Weather Service:

Issued at: Sun Nov 29 21:05:01 EST 2020

CLOUD COVER                    Cloudy       Cloudy       Cloudy        Mcldy
PRECIP TYPE                      Rain    Snow/Rain         Snow         Snow
CHANCE PRECIP (%)                 100          100           70           30
TEMP (24H TREND)              35 (+4)     39 (-17)           26           35
RH % (24H TREND)             100 (+3)     92 (+36)           98           59
20FTWND-AM(MPH)                          NW 10 G18                      W  9
20FTWND-PM(MPH)               Lgt/Var    NW 10 G18        NW  9         W 10
PRECIP AMOUNT                    0.41         0.34         0.10         0.02
PRECIP DURATION                     6           11            6            1
MIXING HGT(FT-AGL)                            3310                      4420
TRANSPORT WND (MPH)                          NW 20                      W 26
LAL                                 1            1            1            1
HAINES INDEX                        3            3            3            3

REMARKS...None.

.FORECAST FOR DAYS 3 THROUGH 7...
.TUESDAY NIGHT...Mostly clear. Lows in the lower 20s. West winds around
5 mph. 
.WEDNESDAY...Sunny. Highs in the lower 40s. Southwest winds 5 to 10 mph. 
.THURSDAY...Partly cloudy. Lows in the mid 20s. Highs in the mid 40s.
South winds around 5 mph. 
.FRIDAY...Mostly cloudy. Lows in the lower 30s. Highs in the mid 40s.
South winds around 5 mph. 
.SATURDAY...Mostly cloudy. A chance of rain showers. Lows around 30. Highs
in the lower 40s. West winds 5 to 10 mph. 
.SUNDAY...Partly cloudy. A chance of rain showers. Lows in the upper 20s.
Highs in the lower 40s. West winds 5 to 10 mph. 

SPC's Fire Weather Web Tool (Excellent!), SPC's Fire Weather Outlooks, NWS Fire Weather WEB, Fire Danger Class Map,
Keetch-Byram Drought Index, ROMAN Web, Haines Index ,
WFAS's 10-hr Dead Fuel Moist., WFAS's 100-hr Dead Fuel Moist., Probablity of Ignition, Visual blackness Map, Palmer Drought Index, HPC's Rainfall Forecast Maps


Hazardous Weather Outlook For MASON County, Kentucky
331 PM EST Sun Nov 29 2020

   WINTER WEATHER ADVISORY IN EFFECT FROM NOON MONDAY TO NOON EST
TUESDAY  

This Hazardous Weather Outlook is for Northeast Kentucky, Northern 
Kentucky, Central Ohio, South Central Ohio and Southwest Ohio.

 DAY ONE  This afternoon and tonight.

There is a low probability for widespread hazardous weather.

 DAYS TWO THROUGH SEVEN  Monday through Saturday.

Please listen to NOAA Weather Radio or go to weather.gov on the
Internet for more information about the following hazards.

   Winter Weather Advisory.

 SPOTTER INFORMATION STATEMENT  

Weather spotters are encouraged to report snow accumulations to the 
National Weather Service.

Latest MASON County, Kentucky Watches, Warnings and Advisories.
Additional Drought Info.: UKAWC Drought Page, Kentucky Drought Watch


7-Day Forecast For MASON County, KY


WINTER WEATHER ADVISORY IN EFFECT FROM NOON MONDAY TO NOON EST TUESDAY

OVERNIGHT
A chance of rain late this evening, then rain. Lows in the mid 30s. Northwest winds 5 to 10 mph. Chance of rain 100 percent.

MONDAY
Snow and rain in the morning, then snow in the afternoon. Snow accumulation an inch or less. Cooler with highs in the upper 30s. Northwest winds 10 to 15 mph with gusts up to 25 mph. Chance of precipitation 100 percent.

MONDAY NIGHT
Snow likely. Total snow accumulation of 1 to 3 inches possible. Lows in the mid 20s. West winds 10 to 15 mph. Chance of snow 70 percent.

TUESDAY
Mostly cloudy with a chance of snow in the morning, then partly cloudy in the afternoon. Unseasonably cold with highs in the mid 30s. West winds 10 to 15 mph. Chance of snow 30 percent.

TUESDAY NIGHT
Mostly clear. Lows in the lower 20s. West winds 5 to 10 mph.

WEDNESDAY
Sunny. Highs in the lower 40s.

WEDNESDAY NIGHT
Mostly clear in the evening, then becoming partly cloudy. Lows in the mid 20s.

THURSDAY
Mostly cloudy. Highs in the mid 40s.

THURSDAY NIGHT
Mostly cloudy. A chance of rain and snow showers after midnight. Lows in the lower 30s. Chance of precipitation 30 percent.

FRIDAY
Mostly cloudy. A chance of snow showers in the morning. Highs in the mid 40s. Chance of snow 30 percent.

FRIDAY NIGHT
Partly cloudy. Lows around 30.

SATURDAY
Partly cloudy. A chance of rain showers in the afternoon. Highs in the lower 40s. Chance of rain 30 percent.

SATURDAY NIGHT
Partly cloudy. A chance of rain showers in the evening. Lows in the upper 20s. Chance of rain 30 percent.

SUNDAY
Partly cloudy. Highs in the lower 40s.

Ag Weather Center, Department of Biosystems & Agricultural Engineering, University of Kentucky